EW0609 Weather Reports


Display with metric or nautical units.
time (UTC)temp
F
wind
direction
speed
MPH
gust
MPH
rain 1hr
in
rain 24hr
in
rain mn
in
humidity
%
barometer
mb
20260503192226 78 244 6.0 24.0 0.00 0.00 0.00 29 1015.8
20260503191727 77 213 10.0 24.0 0.00 0.00 0.00 27 1015.8
20260503191227 77 227 10.0 22.0 0.00 0.00 0.00 29 1015.9
20260503191134 77 247 4.0 16.0 0.00 0.00 0.00 29 1016.1
20260503190226 77 165 9.0 21.0 0.00 0.00 0.00 27 1016.3
20260503185724 77 219 11.0 21.0 0.00 0.00 0.00 27 1016.3
20260503185227 77 203 7.0 16.0 0.00 0.00 0.00 28 1016.3
20260503184728 78 199 6.0 16.0 0.00 0.00 0.00 29 1016.5
20260503184226 78 233 8.0 16.0 0.00 0.00 0.00 29 1016.5
20260503183725 77 283 5.0 13.0 0.00 0.00 0.00 27 1016.6
20260503183225 76 157 7.0 13.0 0.00 0.00 0.00 27 1016.7
20260503182726 76 269 5.0 17.0 0.00 0.00 0.00 27 1016.7
20260503182226 76 216 6.0 17.0 0.00 0.00 0.00 28 1017.2
20260503181725 75 257 6.0 12.0 0.00 0.00 0.00 29 1016.9
20260503181627 76 179 8.0 15.0 0.00 0.00 0.00 30 1017.2
20260503180726 75 179 8.0 16.0 0.00 0.00 0.00 29 1017.4
20260503180226 74 228 8.0 16.0 0.00 0.00 0.00 29 1017.5
20260503180141 75 193 8.0 14.0 0.00 0.00 0.00 30 1017.5
20260503175226 75 238 6.0 15.0 0.00 0.00 0.00 32 1017.5
20260503174725 75 157 7.0 20.0 0.00 0.00 0.00 32 1017.4
20260503174227 74 278 12.0 20.0 0.00 0.00 0.00 31 1017.7
20260503173726 74 164 7.0 22.0 0.00 0.00 0.00 32 1017.7
20260503173225 74 237 10.0 22.0 0.00 0.00 0.00 33 1017.8
20260503172726 74 206 7.0 19.0 0.00 0.00 0.00 33 1017.8
20260503172227 73 162 9.0 20.0 0.00 0.00 0.00 33 1018.1
20260503172127 73 261 7.0 20.0 0.00 0.00 0.00 34 1018.0
20260503171225 73 224 6.0 15.0 0.00 0.00 0.00 33 1018.2
20260503171122 72 185 7.0 15.0 0.00 0.00 0.00 37 1018.4
20260503170633 72 244 8.0 20.0 0.00 0.00 0.00 36 1018.5
20260503150726 65 265 9.0 16.0 0.00 0.00 0.00 49 1019.7
20260503150225 65 272 7.0 21.0 0.00 0.00 0.00 49 1019.8
20260503150129 65 219 13.0 21.0 0.00 0.00 0.00 50 1019.8
20260503140226 59 288 6.0 13.0 0.00 0.00 0.00 57 1020.2
20260503131226 53 331 6.0 12.0 0.00 0.00 0.00 67 1019.7
20260503130725 53 245 6.0 12.0 0.00 0.00 0.00 68 1019.8
20260503130228 52 245 4.0 13.0 0.00 0.00 0.00 69 1019.7
20260503110225 51 276 5.0 11.0 0.00 0.00 0.00 70 1019.2
20260503100123 51 224 4.0 13.0 0.00 0.00 0.00 67 1019.4
20260503090225 52 298 5.0 13.0 0.00 0.00 0.00 61 1019.3
20260503081227 53 268 5.0 12.0 0.00 0.00 0.00 57 1019.3
20260503081125 53 252 6.0 13.0 0.00 0.00 0.00 56 1019.3
20260503080225 53 286 5.0 13.0 0.00 0.00 0.00 55 1019.3
20260503072725 54 237 6.0 13.0 0.00 0.00 0.00 52 1019.5
20260503072226 55 241 5.0 12.0 0.00 0.00 0.00 51 1019.7
20260503071725 55 223 4.0 10.0 0.00 0.00 0.00 51 1019.6
20260503071229 54 226 4.0 11.0 0.00 0.00 0.00 51 1019.6
20260503071128 55 237 5.0 11.0 0.00 0.00 0.00 50 1019.7
20260503070625 55 281 4.0 12.0 0.00 0.00 0.00 50 1019.7
20260503060225 56 248 3.0 11.0 0.00 0.00 0.00 43 1019.7
20260503060111 57 261 4.0 9.0 0.00 0.00 0.00 42 1019.8
20260503054724 57 265 3.0 6.0 0.00 0.00 0.00 41 1019.7
20260503054224 57 243 4.0 7.0 0.00 0.00 0.00 41 1019.7
20260503054118 58 254 3.0 11.0 0.00 0.00 0.00 41 1019.6
20260503053226 58 250 5.0 11.0 0.00 0.00 0.00 40 1019.6
20260503052725 58 247 4.0 13.0 0.00 0.00 0.00 39 1019.7
20260503052225 59 274 4.0 13.0 0.00 0.00 0.00 39 1019.6
20260503052122 59 269 3.0 9.0 0.00 0.00 0.00 39 1019.7
20260503051224 59 240 4.0 10.0 0.00 0.00 0.00 39 1019.7
20260503050725 59 251 4.0 11.0 0.00 0.00 0.00 40 1019.7
20260503050622 58 234 5.0 11.0 0.00 0.00 0.00 39 1019.7
20260503045726 58 241 2.0 5.0 0.00 0.00 0.00 39 1019.6
20260503045224 59 240 3.0 5.0 0.00 0.00 0.00 38 1019.6
20260503044726 59 245 3.0 6.0 0.00 0.00 0.00 38 1019.7
20260503044224 59 193 4.0 6.0 0.00 0.00 0.00 37 1019.7
20260503043724 59 224 2.0 5.0 0.00 0.00 0.00 37 1019.6
20260503043224 59 230 3.0 5.0 0.00 0.00 0.00 37 1019.6
20260503042727 59 255 3.0 5.0 0.00 0.00 0.00 38 1019.6
20260503042224 59 237 3.0 6.0 0.00 0.00 0.00 36 1019.5
20260503041725 59 248 2.0 6.0 0.00 0.00 0.00 38 1019.6
20260503041224 60 219 1.0 6.0 0.00 0.00 0.00 37 1019.6
20260503040723 60 219 1.0 6.0 0.00 0.00 0.00 37 1019.7
20260503040619 60 233 3.0 6.0 0.00 0.00 0.00 36 1019.6
20260503035725 60 230 2.0 6.0 0.00 0.00 0.00 36 1019.7
20260503035224 60 214 2.0 6.0 0.00 0.00 0.00 36 1019.6
20260503035120 60 227 1.0 6.0 0.00 0.00 0.00 37 1019.8
20260503034225 59 235 3.0 4.0 0.00 0.00 0.00 40 1019.7
20260503033725 58 233 0.0 0.0 0.00 0.00 0.00 40 1019.7
20260503033224 58 233 0.0 0.0 0.00 0.00 0.00 41 1019.7
20260503032725 59 250 0.0 2.0 0.00 0.00 0.00 40 1019.5
20260503032224 58 237 1.0 3.0 0.00 0.00 0.00 43 1019.6
20260503031724 58 224 0.0 3.0 0.00 0.00 0.00 49 1019.5
20260503031226 58 223 0.0 0.0 0.00 0.00 0.00 42 1019.4
20260503030727 58 206 0.0 0.0 0.00 0.00 0.00 40 1019.4
20260503030224 58 202 0.0 0.0 0.00 0.00 0.00 39 1019.3
20260503025724 59 202 0.0 0.0 0.00 0.00 0.00 38 1019.4
20260503025620 59 197 0.0 0.0 0.00 0.00 0.00 37 1019.3
20260503024724 59 224 0.0 0.0 0.00 0.00 0.00 37 1019.2
20260503024225 60 227 0.0 0.0 0.00 0.00 0.00 39 1019.2
20260503024140 59 227 0.0 0.0 0.00 0.00 0.00 41 1019.1
20260503023639 60 227 0.0 0.0 0.00 0.00 0.00 43 1019.1
20260503022724 60 227 0.0 0.0 0.00 0.00 0.00 44 1019.1
20260503022626 60 233 0.0 0.0 0.00 0.00 0.00 35 1019.1
20260503021727 61 233 0.0 0.0 0.00 0.00 0.00 35 1019.1
20260503021226 62 235 0.0 2.0 0.00 0.00 0.00 34 1019.1
20260503020725 62 230 0.0 2.0 0.00 0.00 0.00 33 1019.0
20260503020225 62 217 0.0 2.0 0.00 0.00 0.00 32 1019.0
20260503015724 63 217 0.0 3.0 0.00 0.00 0.00 32 1018.8
20260503015226 63 227 1.0 3.0 0.00 0.00 0.00 31 1018.8
20260503014724 62 212 1.0 3.0 0.00 0.00 0.00 40 1018.7
20260503014224 63 228 0.0 3.0 0.00 0.00 0.00 39 1018.7
20260503014122 65 209 1.0 4.0 0.00 0.00 0.00 30 1018.5
20260503013919 65 230 0.0 3.0 0.00 0.00 0.00 30 1018.6
20260503012726 65 180 1.0 4.0 0.00 0.00 0.00 29 1018.5
20260503012225 66 116 1.0 3.0 0.00 0.00 0.00 33 1018.5
20260503011727 67 135 1.0 7.0 0.00 0.00 0.00 27 1018.4
20260503011223 68 127 2.0 7.0 0.00 0.00 0.00 25 1018.5
20260503010725 68 127 2.0 6.0 0.00 0.00 0.00 26 1018.5
20260503010224 68 96 2.0 5.0 0.00 0.00 0.00 25 1018.3
20260503005726 68 114 4.0 5.0 0.00 0.00 0.00 26 1018.4
20260503005224 68 124 2.0 6.0 0.00 0.00 0.00 27 1018.4
20260503004724 69 125 2.0 6.0 0.00 0.00 0.00 26 1018.4
20260503004224 69 123 3.0 7.0 0.00 0.00 0.00 25 1018.4
20260503003725 68 221 3.0 9.0 0.00 0.00 0.00 26 1018.4
20260503003623 68 141 4.0 9.0 0.00 0.00 0.00 29 1018.4
20260503002726 68 206 1.0 4.0 0.00 0.00 0.00 26 1018.4
20260503002225 68 159 0.0 4.0 0.00 0.00 0.00 26 1018.5
20260503001724 68 190 1.0 11.0 0.00 0.00 0.00 29 1018.5
20260503001224 69 226 5.0 11.0 0.00 0.00 0.00 27 1018.4
20260503000725 69 221 2.0 7.0 0.00 0.00 0.00 29 1018.4
20260503000229 69 182 2.0 6.0 0.00 0.00 0.00 30 1018.4
20260502235727 68 220 2.0 7.0 0.00 0.00 0.00 30 1018.5
20260502235627 67 128 3.0 7.0 0.00 0.00 0.00 28 1018.5
20260502234724 67 166 2.0 4.0 0.00 0.00 0.00 31 1018.5
20260502234224 67 185 2.0 4.0 0.00 0.00 0.00 37 1018.5
20260502233724 67 192 1.0 4.0 0.00 0.00 0.00 33 1018.6
20260502233249 67 290 2.0 4.0 0.00 0.00 0.00 34 1018.5
20260502232904 68 348 2.0 5.0 0.00 0.00 0.00 34 1018.6
20260502232817 67 106 1.0 4.0 0.00 0.00 0.00 34 1018.6
20260502231224 69 221 2.0 9.0 0.00 0.00 0.00 28 1018.6
20260502231113 69 219 4.0 7.0 0.00 0.00 0.00 31 1018.6
20260502230226 69 238 4.0 7.0 0.00 0.00 0.00 31 1018.6
20260502225724 69 199 3.0 10.0 0.00 0.00 0.00 33 1018.6
20260502225226 69 235 3.0 10.0 0.00 0.00 0.00 35 1018.6
20260502224724 69 250 2.0 10.0 0.00 0.00 0.00 32 1018.6
20260502224616 70 238 4.0 11.0 0.00 0.00 0.00 31 1018.6
20260502224028 73 226 4.0 10.0 0.00 0.01 0.00 24 1018.7
20260502223858 72 213 5.0 11.0 0.00 0.00 0.00 26 1018.8
20260502222724 74 161 5.0 10.0 0.00 0.01 0.00 23 1018.7
20260502222224 73 206 2.0 13.0 0.00 0.01 0.00 23 1018.7
20260502222113 73 152 5.0 13.0 0.00 0.01 0.00 22 1018.8
20260502221225 72 227 3.0 9.0 0.00 0.01 0.00 25 1019.0
20260502220724 73 248 2.0 9.0 0.00 0.01 0.00 25 1019.1
20260502220224 73 145 3.0 9.0 0.00 0.01 0.00 23 1019.2
20260502215723 73 142 2.0 5.0 0.00 0.01 0.00 21 1019.1
20260502215226 74 333 2.0 6.0 0.00 0.01 0.00 24 1019.2
20260502214724 73 17 4.0 10.0 0.00 0.01 0.00 25 1019.2
20260502214609 73 347 5.0 10.0 0.00 0.01 0.00 26 1019.3
20260502213724 72 41 1.0 12.0 0.00 0.01 0.00 24 1019.4
20260502213224 73 97 5.0 12.0 0.00 0.01 0.00 25 1019.4
20260502212724 73 226 4.0 11.0 0.00 0.01 0.00 24 1019.5
20260502212617 73 213 3.0 7.0 0.00 0.01 0.00 22 1019.6
20260502211725 72 323 0.0 6.0 0.00 0.01 0.00 25 1019.6
20260502211223 72 268 3.0 6.0 0.00 0.01 0.00 22 1019.8
20260502211107 72 134 3.0 6.0 0.00 0.01 0.00 21 1020.0
20260502210223 72 216 3.0 4.0 0.00 0.01 0.00 24 1020.1
20260502205725 71 25 2.0 6.0 0.00 0.01 0.00 30 1020.1
20260502205224 70 100 4.0 10.0 0.00 0.01 0.00 24 1020.2
20260502204724 71 120 4.0 10.0 0.00 0.01 0.00 23 1020.2
20260502204225 72 99 4.0 10.0 0.00 0.01 0.00 26 1020.3
20260502204113 72 272 3.0 10.0 0.00 0.01 0.00 25 1020.4
20260502203224 72 0 2.0 7.0 0.00 0.01 0.00 24 1020.3
20260502202724 73 0 2.0 7.0 0.00 0.01 0.00 26 1020.5
20260502202225 73 326 4.0 7.0 0.00 0.01 0.00 26 1020.5
20260502201724 72 1 2.0 6.0 0.00 0.01 0.00 27 1020.5
20260502201223 71 158 2.0 6.0 0.00 0.01 0.00 22 1020.5
20260502201111 70 261 2.0 7.0 0.00 0.01 0.00 29 1020.7
20260502200224 72 240 1.0 10.0 0.00 0.01 0.00 25 1020.6
20260502195725 74 309 4.0 10.0 0.00 0.01 0.00 21 1020.7
20260502195503 73 330 4.0 5.0 0.00 0.01 0.00 19 1020.9
20260502195352 73 357 5.0 9.0 0.00 0.01 0.00 21 1020.7
20260502194616 73 240 2.0 7.0 0.00 0.01 0.00 21 1020.7
20260502193723 72 140 0.0 9.0 0.00 0.01 0.00 21 1020.9
20260502193224 71 343 1.0 11.0 0.00 0.01 0.00 24 1021.0
20260502193119 73 102 4.0 11.0 0.00 0.01 0.00 21 1021.1